Johnstown, NE

11:25 PM CST on February 23, 2017 (GMT -0600)
Ainsworth Municipal

Weather History for KANW - January, 2013

Change the Weather History Date:

Sunday, January 6, 2013

  Actual Average Record
Temperature  
Mean Temperature 30 °F -  
Max Temperature 44 °F 34 °F 59 °F (2006)
Min Temperature 16 °F 13 °F -9 °F (2005)
Degree Days  
Heating Degree Days 35    
Moisture  
Dew Point 18 °F    
Average Humidity 66    
Maximum Humidity 83    
Minimum Humidity 35    
Precipitation  
Precipitation 0.00 in - - ()
Sea Level Pressure  
Sea Level Pressure 30.07 in    
Wind  
Wind Speed 10 mph (SW)    
Max Wind Speed 24 mph    
Max Gust Speed 33 mph    
Visibility 10 miles    
Events      
Averages and records for this station are not official NWS values.
T = Trace of Precipitation, MM = Missing Value Source: NWS Daily Summary

Daily Weather History Graph

Daily Weather History Graph

Search for Another Location

Airport or City:

Trip Planner

Search our weather history database for the weather conditions in past years. The results will help you decide how hot, cold, wet, or windy it might be!

Date:

Astronomy

Jan. 06, 2013 Rise Set
Actual Time 8:09 AM CST 5:22 PM CST
Civil Twilight 7:38 AM CST 5:54 PM CST
Nautical Twilight 7:02 AM CST 6:29 PM CST
Astronomical Twilight 6:28 AM CST 7:03 PM CST
Moon 2:23 AM CST (1/6) 12:53 PM CST (1/6)
Length of Visible Light 10h 16m
Length of Day
9h 12m
Waning Crescent, 33% of the Moon is Illuminated
Jan 6
Waning Crescent
Jan 11
New
Jan 18
First Quarter
Jan 26
Full
Feb 3
Last Quarter

Hourly Weather History & Observations

Time (CST) Temp. Windchill Dew Point Humidity Pressure Visibility Wind Dir Wind Speed Gust Speed Precip Events Conditions
12:15 AM 18.5 °F 8.4 °F 13.3 °F 80% 30.20 in 10.0 mi West 8.1 mph - N/A   Clear
12:35 AM 18.0 °F 9.8 °F 13.1 °F 81% 30.20 in 10.0 mi West 5.8 mph - N/A   Clear
12:55 AM 18.0 °F 7.7 °F 13.5 °F 83% 30.19 in 10.0 mi WSW 8.1 mph - N/A   Clear
1:15 AM 18.7 °F 13.5 °F 13.8 °F 81% 30.19 in 10.0 mi WSW 3.5 mph - N/A   Clear
1:35 AM 19.0 °F 11.1 °F 14.0 °F 81% 30.19 in 10.0 mi West 5.8 mph - N/A   Clear
1:55 AM 20.7 °F 11.0 °F 14.9 °F 78% 30.19 in 10.0 mi West 8.1 mph - N/A   Clear
2:15 AM 19.8 °F 10.8 °F 14.4 °F 80% 30.19 in 10.0 mi West 6.9 mph - N/A   Clear
2:35 AM 19.4 °F 10.4 °F 14.2 °F 80% 30.20 in 10.0 mi West 6.9 mph - N/A   Clear
2:55 AM 20.3 °F 11.5 °F 14.5 °F 78% 30.21 in 10.0 mi West 6.9 mph - N/A   Clear
3:15 AM 20.8 °F 13.2 °F 14.5 °F 77% 30.20 in 10.0 mi West 5.8 mph - N/A   Clear
3:35 AM 19.9 °F 12.1 °F 14.0 °F 78% 30.20 in 10.0 mi West 5.8 mph - N/A   Clear
3:55 AM 20.8 °F 13.2 °F 14.5 °F 77% 30.20 in 10.0 mi West 5.8 mph - N/A   Clear
4:15 AM 20.7 °F 11.9 °F 14.0 °F 75% 30.20 in 10.0 mi West 6.9 mph - N/A   Clear
4:35 AM 20.3 °F 10.6 °F 14.0 °F 77% 30.19 in 10.0 mi West 8.1 mph - N/A   Clear
4:55 AM 19.4 °F 9.5 °F 13.3 °F 77% 30.19 in 10.0 mi West 8.1 mph - N/A   Clear
5:15 AM 19.4 °F 9.5 °F 13.5 °F 78% 30.19 in 10.0 mi West 8.1 mph - N/A   Clear
5:35 AM 18.5 °F 9.3 °F 12.6 °F 78% 30.20 in 10.0 mi West 6.9 mph - N/A   Clear
5:55 AM 19.4 °F 9.5 °F 13.1 °F 76% 30.19 in 10.0 mi West 8.1 mph - N/A   Clear
6:15 AM 19.4 °F 9.5 °F 12.2 °F 74% 30.19 in 10.0 mi West 8.1 mph - N/A   Clear
6:35 AM 18.1 °F 7.9 °F 12.6 °F 79% 30.20 in 10.0 mi West 8.1 mph - N/A   Clear
6:55 AM 16.5 °F 6.0 °F 11.3 °F 80% 30.20 in 10.0 mi WSW 8.1 mph - N/A   Clear
7:15 AM 17.6 °F 9.3 °F 12.2 °F 79% 30.20 in 10.0 mi WSW 5.8 mph - N/A   Clear
7:35 AM 18.9 °F 8.8 °F 12.9 °F 78% 30.20 in 10.0 mi WSW 8.1 mph - N/A   Clear
7:55 AM 18.3 °F 8.2 °F 12.7 °F 79% 30.19 in 10.0 mi WSW 8.1 mph - N/A   Clear
8:15 AM 18.1 °F 8.9 °F 12.4 °F 78% 30.19 in 10.0 mi WSW 6.9 mph - N/A   Clear
8:35 AM 17.8 °F 8.5 °F 12.4 °F 79% 30.20 in 10.0 mi SW 6.9 mph - N/A   Clear
8:55 AM 20.1 °F 12.3 °F 14.0 °F 77% 30.20 in 10.0 mi SW 5.8 mph - N/A   Clear
9:15 AM 23.4 °F 16.2 °F 16.5 °F 75% 30.19 in 10.0 mi SW 5.8 mph - N/A   Clear
9:35 AM 24.8 °F 15.3 °F 17.6 °F 74% 30.19 in 10.0 mi SW 9.2 mph - N/A   Clear
9:55 AM 26.2 °F 17.1 °F 18.3 °F 72% 30.18 in 10.0 mi SW 9.2 mph - N/A   Clear
10:15 AM 28.9 °F 21.1 °F 19.8 °F 69% 30.17 in 10.0 mi SSW 8.1 mph - N/A   Clear
10:35 AM 32.0 °F 23.6 °F 20.3 °F 62% 30.17 in 10.0 mi SW 10.4 mph - N/A   Clear
10:55 AM 33.6 °F 27.5 °F 20.3 °F 58% 30.17 in 10.0 mi SW 6.9 mph - N/A   Clear
11:15 AM 36.0 °F 29.6 °F 19.6 °F 51% 30.17 in 10.0 mi SSW 8.1 mph - N/A   Clear
11:35 AM 36.5 °F 28.7 °F 19.0 °F 49% 30.16 in 10.0 mi SSW 11.5 mph - N/A   Clear
11:55 AM 38.5 °F 32.1 °F 19.2 °F 46% 30.14 in 10.0 mi SSW 9.2 mph - N/A   Clear
12:15 PM 40.1 °F 32.4 °F 19.4 °F 43% 30.12 in 10.0 mi SSW 13.8 mph - N/A   Clear
12:35 PM 40.1 °F 32.7 °F 19.2 °F 43% 30.11 in 10.0 mi SSW 12.7 mph - N/A   Clear
12:55 PM 41.5 °F 34.2 °F 18.5 °F 40% 30.09 in 10.0 mi SSW 13.8 mph 23.0 mph N/A   Clear
1:15 PM 41.9 °F 34.3 °F 19.6 °F 41% 30.08 in 10.0 mi SSW 15.0 mph 20.7 mph N/A   Clear
1:35 PM 43.0 °F 35.1 °F 20.1 °F 40% 30.07 in 10.0 mi SSW 17.3 mph 23.0 mph N/A   Clear
1:55 PM 43.7 °F 36.3 °F 19.9 °F 39% 30.06 in 10.0 mi SSW 16.1 mph - N/A   Clear
2:15 PM 44.8 °F 37.4 °F 18.5 °F 35% 30.04 in 10.0 mi SSW 17.3 mph 27.6 mph N/A   Clear
2:35 PM 44.8 °F 37.1 °F 18.9 °F 36% 30.03 in 10.0 mi SSW 18.4 mph - N/A   Clear
2:55 PM 44.4 °F 36.4 °F 18.9 °F 36% 30.01 in 10.0 mi SSW 19.6 mph 23.0 mph N/A   Clear
3:15 PM 44.6 °F 36.6 °F 20.1 °F 38% 30.01 in 10.0 mi South 19.6 mph 25.3 mph N/A   Clear
3:35 PM 44.4 °F 36.6 °F 20.5 °F 39% 30.00 in 10.0 mi South 18.4 mph 25.3 mph N/A   Clear
3:55 PM 43.3 °F 34.7 °F 21.7 °F 42% 29.99 in 10.0 mi South 20.7 mph - N/A   Clear
4:15 PM 41.5 °F 32.9 °F 22.5 °F 47% 29.99 in 10.0 mi South 18.4 mph 25.3 mph N/A   Clear
4:35 PM 40.3 °F 31.3 °F 22.6 °F 49% 29.98 in 10.0 mi South 18.4 mph 23.0 mph N/A   Clear
4:55 PM 38.5 °F 29.2 °F 23.0 °F 54% 29.97 in 10.0 mi South 17.3 mph - N/A   Clear
5:15 PM 36.9 °F 27.5 °F 23.9 °F 59% 29.97 in 10.0 mi South 16.1 mph - N/A   Clear
5:35 PM 36.3 °F 27.1 °F 23.7 °F 60% 29.97 in 10.0 mi South 15.0 mph - N/A   Clear
5:55 PM 35.6 °F 26.6 °F 23.4 °F 61% 29.96 in 10.0 mi SSW 13.8 mph - N/A   Clear
6:15 PM 35.4 °F 25.3 °F 23.0 °F 61% 29.94 in 10.0 mi SSW 17.3 mph 23.0 mph N/A   Clear
6:35 PM 35.4 °F 24.3 °F 22.8 °F 60% 29.93 in 10.0 mi SSW 20.7 mph - N/A   Clear
6:55 PM 35.1 °F 24.5 °F 22.8 °F 61% 29.92 in 10.0 mi SSW 18.4 mph 24.2 mph N/A   Clear
7:15 PM 34.5 °F 23.8 °F 23.4 °F 64% 29.92 in 10.0 mi SSW 18.4 mph 24.2 mph N/A   Clear
7:35 PM 34.3 °F 22.6 °F 23.7 °F 65% 29.91 in 10.0 mi SSW 21.9 mph 25.3 mph N/A   Clear
7:55 PM 33.8 °F 21.6 °F 23.9 °F 67% 29.91 in 10.0 mi SSW 23.0 mph - N/A   Clear
8:15 PM 34.5 °F 22.3 °F 23.9 °F 65% 29.88 in 10.0 mi SSW 24.2 mph 31.1 mph N/A   Clear
8:35 PM 34.0 °F 21.5 °F 23.9 °F 67% 29.87 in 10.0 mi South 24.2 mph 33.4 mph N/A   Clear
8:55 PM 32.9 °F 22.0 °F 23.7 °F 69% 29.89 in 10.0 mi SSW 17.3 mph 26.5 mph N/A   Clear
9:15 PM 32.2 °F 20.4 °F 23.7 °F 71% 29.88 in 10.0 mi SSW 19.6 mph 25.3 mph N/A   Clear
9:35 PM 32.0 °F 19.5 °F 24.8 °F 75% 29.87 in 10.0 mi SSW 21.9 mph 27.6 mph N/A   Clear
9:55 PM 32.0 °F 19.5 °F 23.7 °F 71% 29.87 in 10.0 mi SSW 21.9 mph 26.5 mph N/A   Clear
10:15 PM 32.0 °F 19.8 °F 23.0 °F 69% 29.87 in 10.0 mi SSW 20.7 mph 24.2 mph N/A   Clear
10:35 PM 31.1 °F 19.7 °F 23.7 °F 74% 29.87 in 10.0 mi SSW 17.3 mph - N/A   Clear
10:55 PM 30.6 °F 18.2 °F 23.4 °F 75% 29.86 in 10.0 mi SSW 19.6 mph 24.2 mph N/A   Clear
11:15 PM 30.2 °F 19.8 °F 23.0 °F 75% 29.87 in 10.0 mi SSW 13.8 mph 23.0 mph N/A   Clear
11:35 PM 29.7 °F 19.6 °F 23.0 °F 76% 29.85 in 10.0 mi SSW 12.7 mph 19.6 mph N/A   Clear
11:55 PM 29.3 °F 18.2 °F 23.0 °F 77% 29.85 in 10.0 mi SSW 15.0 mph - N/A   Clear